Weather History for Tampa Macdill AFB, FL

Change the Weather History Date:

Saturday, December 8, 2012

  Actual Average Record
Temperature  
Mean Temperature 74 °F -  
Max Temperature 82 °F 72 °F 84 °F (1998)
Min Temperature 65 °F 55 °F 33 °F (2010)
Cooling Degree Days 8    
Growing Degree Days 24 (Base 50)    
Moisture  
Dew Point 67 °F    
Average Humidity 96    
Maximum Humidity 100    
Minimum Humidity 67    
Precipitation  
Precipitation 0.00 in - - ()
Sea Level Pressure  
Sea Level Pressure 30.01 in    
Wind  
Wind Speed 7 mph (ESE)    
Max Wind Speed 10 mph    
Max Gust Speed -    
Visibility 6 miles    
Events Rain    
Averages and records for this station are not official NWS values.
T = Trace of Precipitation, MM = Missing Value Source: NWS Daily Summary

Daily Weather History Graph

Daily Weather History Graph

Search for Another Location

Airport:

Trip Planner

Search our weather history database for the weather conditions in past years. The results will help you decide how hot, cold, wet, or windy it might be!

Date:

Astronomy

Dec. 08, 2012 Rise Set
Actual Time 7:09 AM EST 5:35 PM EST
Civil Twilight 6:43 AM EST 6:00 PM EST
Nautical Twilight 6:14 AM EST 6:29 PM EST
Astronomical Twilight 5:45 AM EST 6:58 PM EST
Moon 1:54 AM EST (12/8) 1:45 PM EST (12/8)
Length of Visible Light 11h 17m
Length of Day
10h 25m
Waning Crescent, 28% of the Moon is Illuminated
Dec 8
Waning Crescent
Dec 13
New
Dec 20
First Quarter
Dec 28
Full
Jan 4
Last Quarter

Hourly Weather History & Observations

Time (EST) Temp. Heat Index Dew Point Humidity Pressure Visibility Wind Dir Wind Speed Gust Speed Precip Events Conditions
12:55 AM 66.6 °F - 66.2 °F 99% 29.99 in 10.0 mi East 8.1 mph - N/A   Clear
1:55 AM 65.3 °F - 65.3 °F 100% 29.98 in 10.0 mi ESE 8.1 mph - N/A   Clear
2:37 AM 66.2 °F - 66.2 °F 100% 29.97 in 9.0 mi East 9.2 mph - N/A   Clear
2:55 AM 65.5 °F - 65.5 °F 100% 29.97 in 7.0 mi ESE 9.2 mph - N/A   Partly Cloudy
3:01 AM 66.2 °F - 66.2 °F 100% 29.98 in 6.0 mi ESE 8.1 mph - N/A   Scattered Clouds
3:04 AM 66.2 °F - 66.2 °F 100% 29.98 in 6.0 mi ESE 9.2 mph - N/A   Mostly Cloudy
3:05 AM 66.2 °F - 66.2 °F 100% 29.98 in 6.0 mi ESE 10.4 mph - N/A   Mostly Cloudy
3:14 AM 66.2 °F - 66.2 °F 100% 29.98 in 7.0 mi East 8.1 mph - N/A   Mostly Cloudy
3:46 AM 66.2 °F - 66.2 °F 100% 29.98 in 6.0 mi ESE 8.1 mph - N/A   Overcast
3:47 AM 66.2 °F - 66.2 °F 100% 29.97 in 6.0 mi ESE 6.9 mph - N/A   Overcast
3:55 AM 65.5 °F - 65.5 °F 100% 29.98 in 4.0 mi ESE 6.9 mph - N/A   Overcast
4:01 AM 66.2 °F - 66.2 °F 100% 29.98 in 2.5 mi ESE 6.9 mph - N/A   Overcast
4:04 AM 66.2 °F - 66.2 °F 100% 29.98 in 2.0 mi ESE 5.8 mph - N/A   Overcast
4:10 AM 66.2 °F - 66.2 °F 100% 29.98 in 1.2 mi ESE 6.9 mph - N/A   Overcast
4:15 AM 66.2 °F - 66.2 °F 100% 29.98 in 1.0 mi ESE 5.8 mph - N/A   Mist
4:16 AM 66.2 °F - 66.2 °F 100% 29.98 in 1.0 mi ESE 5.8 mph - N/A   Mist
4:17 AM 66.2 °F - 66.2 °F 100% 29.98 in 1.2 mi ESE 6.9 mph - N/A   Overcast
4:19 AM 66.2 °F - 66.2 °F 100% 29.98 in 1.0 mi ESE 5.8 mph - N/A   Mist
4:26 AM 66.2 °F - 66.2 °F 100% 29.98 in 1.0 mi ESE 5.8 mph - N/A   Mist
4:40 AM 66.2 °F - 66.2 °F 100% 29.98 in 0.8 mi East 6.9 mph - N/A   Mist
4:51 AM 66.2 °F - 66.2 °F 100% 29.98 in 1.0 mi ESE 6.9 mph - N/A   Mist
4:55 AM 65.7 °F - 65.7 °F 100% 29.98 in 1.0 mi East 5.8 mph - N/A   Mist
5:16 AM 66.2 °F - 66.2 °F 100% 29.99 in 1.0 mi ESE 5.8 mph - N/A   Mist
5:24 AM 66.2 °F - 66.2 °F 100% 29.99 in 0.8 mi ESE 5.8 mph - N/A   Mist
5:31 AM 66.2 °F - 66.2 °F 100% 29.99 in 1.0 mi ESE 5.8 mph - N/A   Mist
5:34 AM 66.2 °F - 66.2 °F 100% 29.99 in 1.2 mi ESE 5.8 mph - N/A   Overcast
5:36 AM 66.2 °F - 66.2 °F 100% 29.99 in 1.5 mi ESE 4.6 mph - N/A   Overcast
5:39 AM 66.2 °F - 66.2 °F 100% 29.99 in 2.0 mi ESE 4.6 mph - N/A   Overcast
5:46 AM 66.2 °F - 66.2 °F 100% 30.00 in 2.5 mi ESE 4.6 mph - N/A   Overcast
5:50 AM 66.2 °F - 66.2 °F 100% 30.00 in 3.0 mi ESE 4.6 mph - N/A   Overcast
5:55 AM 66.4 °F - 66.4 °F 100% 30.00 in 4.0 mi ESE 3.5 mph - N/A   Overcast
5:57 AM 66.2 °F - 66.2 °F 100% 30.00 in 4.0 mi ESE 4.6 mph - N/A   Overcast
6:11 AM 66.2 °F - 66.2 °F 100% 30.00 in 6.0 mi ESE 5.8 mph - N/A   Overcast
6:27 AM 66.2 °F - 66.2 °F 100% 30.00 in 5.0 mi ESE 6.9 mph - N/A   Overcast
6:30 AM 66.2 °F - 66.2 °F 100% 30.00 in 5.0 mi ESE 5.8 mph - N/A   Overcast
6:31 AM 66.2 °F - 66.2 °F 100% 30.01 in 5.0 mi ESE 4.6 mph - N/A   Overcast
6:46 AM 66.2 °F - 66.2 °F 100% 30.01 in 6.0 mi ESE 5.8 mph - N/A   Overcast
6:47 AM 66.2 °F - 66.2 °F 100% 30.01 in 6.0 mi ESE 6.9 mph - N/A   Overcast
6:55 AM 66.7 °F - 66.7 °F 100% 30.01 in 8.0 mi ESE 5.8 mph - N/A   Overcast
6:57 AM 66.2 °F - 66.2 °F 100% 30.01 in 8.0 mi ESE 5.8 mph - N/A   Overcast
6:58 AM 66.2 °F - 66.2 °F 100% 30.01 in 8.0 mi ESE 5.8 mph - N/A   Overcast
7:03 AM 66.2 °F - 66.2 °F 100% 30.02 in 8.0 mi ESE 5.8 mph - N/A   Overcast
7:04 AM 66.2 °F - 66.2 °F 100% 30.02 in 8.0 mi ESE 5.8 mph - N/A   Overcast
7:31 AM 66.2 °F - 66.2 °F 100% 30.02 in 9.0 mi ESE 4.6 mph - N/A   Overcast
7:44 AM 68.0 °F - 68.0 °F 100% 30.02 in 10.0 mi SE 4.6 mph - N/A   Overcast
7:55 AM 67.3 °F - 67.3 °F 100% 30.03 in 10.0 mi SE 4.6 mph - N/A   Overcast
8:55 AM 69.1 °F - 69.1 °F 100% 30.05 in 10.0 mi SSE 5.8 mph - N/A   Mostly Cloudy
9:45 AM 71.6 °F - 69.8 °F 94% 30.06 in 10.0 mi SSE 6.9 mph - N/A   Scattered Clouds
9:47 AM 71.6 °F - 69.8 °F 94% 30.06 in 10.0 mi SSE 5.8 mph - N/A   Mostly Cloudy
9:55 AM 71.6 °F - 69.3 °F 92% 30.06 in 10.0 mi SSE 4.6 mph - N/A   Mostly Cloudy
10:32 AM 73.4 °F - 69.8 °F 88% 30.07 in 10.0 mi South 4.6 mph - N/A   Scattered Clouds
10:55 AM 75.0 °F - 71.4 °F 89% 30.06 in 10.0 mi Calm Calm - N/A   Clear
11:55 AM 78.1 °F - 70.3 °F 77% 30.04 in 10.0 mi Variable 4.6 mph - N/A   Clear
12:55 PM 80.6 °F 84.1 °F 70.5 °F 71% 30.01 in 10.0 mi Variable 3.5 mph - N/A   Clear
1:55 PM 80.4 °F 83.8 °F 70.2 °F 71% 30.00 in 10.0 mi West 4.6 mph - N/A   Clear
2:55 PM 82.6 °F 86.8 °F 70.5 °F 67% 29.99 in 10.0 mi West 6.9 mph - N/A   Partly Cloudy
3:55 PM 80.8 °F 83.8 °F 68.9 °F 67% 29.99 in 10.0 mi West 6.9 mph - N/A   Partly Cloudy
4:55 PM 79.0 °F - 69.1 °F 72% 29.99 in 10.0 mi North 3.5 mph - N/A   Clear
5:55 PM 73.4 °F - 68.5 °F 85% 30.00 in 10.0 mi WNW 3.5 mph - N/A   Clear
6:55 PM 71.1 °F - 68.0 °F 90% 30.03 in 10.0 mi North 3.5 mph - N/A   Mostly Cloudy
7:55 PM 70.7 °F - 68.4 °F 92% 30.04 in 10.0 mi North 3.5 mph - N/A   Mostly Cloudy
8:55 PM 69.6 °F - 67.6 °F 93% 30.05 in 10.0 mi NNE 3.5 mph - N/A   Scattered Clouds
9:55 PM 70.3 °F - 68.5 °F 94% 30.06 in 10.0 mi East 4.6 mph - N/A   Overcast
10:19 PM 69.8 °F - 69.8 °F 100% 30.07 in 10.0 mi ESE 5.8 mph - N/A   Light Drizzle
10:28 PM 69.8 °F - 69.8 °F 100% 30.07 in 10.0 mi East 6.9 mph - N/A   Mostly Cloudy
10:55 PM 69.3 °F - 68.9 °F 99% 30.06 in 10.0 mi East 8.1 mph - 0.00 in   Mostly Cloudy
10:57 PM 69.8 °F - 69.8 °F 100% 30.06 in 10.0 mi East 8.1 mph - N/A Rain Light Rain
11:19 PM 68.0 °F - 68.0 °F 100% 30.06 in 10.0 mi ENE 5.8 mph - N/A   Mostly Cloudy
11:55 PM 68.5 °F - 68.5 °F 100% 30.05 in 10.0 mi East 4.6 mph - 0.00 in   Overcast